Location: Bauen
(46.9356°N, 8.5784°E)
Time: 04:41:54
(UTC+00:00)

MSX - Pass Details

Date: 18 February 2020
Orbit: 894 x 906 km, 98.8° (Epoch: 02 April)

Event Time Altitude Azimuth Distance (km) Brightness Sun altitude
Rises 03:47:20 0° 11° (N) 3,525 7.2 -27.7°
Reaches altitude 10° 03:49:46 10° 8° (N) 2,579 6.4 -27.3°
Enters shadow 03:54:53 59° 316° (NW) 1,033 3.9 -26.4°
